Flag for Kazakhstan Weather past 2 weeks in Shymkent, Kazakhstan

63 °F

More clouds than sun.

Feels Like: 63 °F
Forecast: 48 / 60 °F
Wind: 15 mph from West

Location: Shymkent Airport

Current Time: Oct 10, 2015 at 1:52:41 PM

Latest Report: Oct 10, 2015 at 1:30 PM

Visibility: N/A

Pressure: 29.92 "Hg (28.19 "Hg at 506m altitude)

Humidity: 49%

Dew point: 43 °F

Location of ShymkentLocation

Historic Weather in Shymkent — Graph


Shymkent temperature yesterday

Maximum temperature yesterday: 88 °F (at 1:30 PM)
Minimum temperature yesterday: 64 °F (at 3:00 AM)
Average temperature yesterday: 73 °F

Past Weeks' High & Low Weather Summary

High97 °F (Oct 8, 3:00 PM)82% (Oct 10, 8:00 AM)30.27 "Hg (Oct 10, 8:00 AM)
Low45 °F (Sep 26, 7:00 AM)10% (Oct 8, 2:30 PM)29.80 "Hg (Oct 9, 1:30 AM)
Average67 °F34%30.06 "Hg
* Reported Sep 25 12:00 Noon — Oct 10 12:30 PM, Shymkent, Weather by CustomWeather, © 2015

Note: Actual official high and low records may vary slightly from our data, if they occured in-between our weather recording intervals... More about our weather records


Shymkent weather history for previous 24 hours

Time TempWeatherWind HumidityBarometerVisibility
12:30 PM
Sat, Oct 10
72 °FMore clouds than sun.10 mph44%29.89 "Hg5 mi
12:00 PM70 °FMore clouds than sun.6 mph46%29.89 "Hg4 mi
11:30 AM70 °FMore clouds than sun.3 mph50%29.83 "Hg3 mi
11:00 AM68 °FClear.6 mph53%29.83 "Hg4 mi
10:30 AM64 °FPassing clouds.3 mph56%29.86 "HgN/A
10:00 AM61 °FSunny.1 mph59%29.86 "Hg10 mi
9:30 AM57 °FSunny.3 mph67%29.86 "Hg10 mi
9:00 AM57 °FSunny.1 mph67%29.86 "Hg10 mi
8:30 AM55 °FOvercast.No wind72%29.86 "HgN/A
8:00 AM54 °FOvercast.1 mph82%29.86 "HgN/A
7:30 AM57 °FOvercast.1 mph72%29.86 "HgN/A
7:00 AM55 °FClear.1 mph77%29.86 "Hg10 mi
6:30 AM55 °FClear.1 mph77%29.86 "Hg10 mi
6:00 AM59 °FClear.1 mph68%29.86 "Hg10 mi
5:30 AM59 °FClear.No wind68%29.86 "Hg10 mi
5:00 AM61 °FClear.1 mph68%29.86 "Hg10 mi
4:30 AM61 °FClear.3 mph63%29.89 "Hg10 mi
4:00 AM59 °FClear.1 mph68%29.89 "Hg10 mi
3:00 AM59 °FClear.1 mph72%29.89 "Hg10 mi
2:30 AM61 °FPassing clouds.3 mph68%29.89 "HgN/A
2:00 AM59 °FClear.1 mph72%29.89 "Hg10 mi
1:30 AM61 °FClear.1 mph72%29.92 "Hg10 mi
1:00 AM63 °FClear.No wind64%29.92 "Hg10 mi
12:30 AM61 °FClear.6 mph68%29.95 "Hg10 mi
12:00 AM64 °FPassing clouds.3 mph60%29.95 "HgN/A
11:30 PM
Fri, Oct 9
66 °FPassing clouds.3 mph56%29.98 "HgN/A
11:00 PM64 °FClear.6 mph60%29.95 "Hg10 mi
10:30 PM64 °FClear.3 mph60%29.98 "Hg10 mi
10:00 PM66 °FClear.1 mph56%29.95 "Hg10 mi
9:30 PM66 °FPassing clouds.3 mph56%29.98 "HgN/A
9:00 PM66 °FOvercast.8 mph56%29.98 "HgN/A
8:30 PM66 °FOvercast.13 mph56%29.98 "HgN/A
8:00 PM68 °FOvercast.6 mph53%29.95 "HgN/A
7:30 PM68 °FOvercast.6 mph53%29.95 "Hg4 mi
7:00 PM72 °FDuststorm.6 mph47%29.92 "Hg2 mi
6:30 PM72 °FDuststorm.6 mph50%29.92 "Hg1 mi
6:00 PM73 °FDuststorm.13 mph47%29.92 "Hg1 mi
5:30 PM81 °FSunny.8 mph24%29.89 "Hg10 mi
5:00 PM82 °FOvercast.13 mph25%29.89 "HgN/A
4:30 PM82 °FSunny.13 mph26%29.89 "Hg10 mi
4:00 PM82 °FSunny.15 mph25%29.86 "Hg10 mi
3:30 PM86 °FSunny.13 mph19%29.86 "Hg10 mi
3:00 PM88 °FSunny.13 mph17%29.86 "Hg10 mi
2:30 PM86 °FPassing clouds.3 mph19%29.86 "HgN/A
2:00 PM86 °FSunny.6 mph19%29.89 "Hg10 mi
1:30 PM88 °FPassing clouds.3 mph16%29.86 "HgN/A
1:00 PM86 °FSunny.1 mph18%29.89 "Hg10 mi
Weather by CustomWeather, © 2015

See weather overviewHow to use our weather pages